Probability
0 0 0 0 0 0 0 0 0 0 0 0 0 0 0 0 0 0 0 1 1 1 1 1 3 3 3 4 6 8 10 12 12 11 10 9 8 6 4 4 4 4 4 4
0 0 0 0 0 0 0 0 0 0 0 0 0 0 0 0 0 0 1 2 2 2 2 2 3 3 5 8 10 10 9 11 11 10 10 9 7 5 3 4 4 4 4 4
0 0 0 0 0 0 0 0 0 0 0 0 0 0 0 0 0 0 1 2 3 3 4 4 3 3 6 11 12 9 8 8 9 9 9 9 7 5 3 4 5 6 5 5
0 0 0 0 0 0 0 0 0 0 0 0 0 0 0 0 0 0 1 2 3 3 5 7 6 4 6 10 10 8 7 8 9 9 9 9 8 6 5 5 6 7 8 7
0 0 0 0 0 0 0 0 0 0 0 0 0 0 0 0 0 0 1 2 3 4 6 9 8 6 6 8 10 9 10 12 11 9 8 8 8 8 8 9 9 10 10 9
0 0 0 0 0 0 0 0 0 0 0 0 0 0 0 0 1 2 3 4 5 5 7 9 7 5 6 7 10 12 14 14 12 9 7 7 9 10 11 11 11 11 10 8
0 0 0 0 0 0 0 0 0 0 0 0 0 0 0 0 2 3 5 6 7 7 9 9 7 4 5 8 9 11 14 14 11 9 7 7 9 10 10 10 10 10 7 5
0 0 0 0 0 0 0 0 0 0 0 0 0 0 0 1 3 5 7 9 9 8 9 9 7 5 5 7 8 9 11 13 12 10 8 8 8 8 8 8 8 7 4 2
0 0 0 0 0 0 0 0 0 0 0 0 0 0 1 3 5 8 10 10 9 7 8 8 7 6 5 6 7 8 10 13 13 13 11 10 7 6 5 6 6 6 4 4
0 0 0 0 0 0 0 0 0 0 0 0 0 0 1 4 7 10 12 11 8 6 5 7 8 8 7 5 6 8 9 11 14 16 15 12 9 7 6 6 7 8 8 9
1 0 0 0 0 0 0 0 0 0 0 1 1 1 3 6 8 10 12 12 9 6 6 8 10 10 8 7 7 9 10 11 13 15 16 14 12 11 9 9 10 10 11 12
2 1 0 0 0 0 0 0 0 0 1 2 2 3 6 8 8 10 12 13 12 11 11 12 12 12 10 9 9 10 12 13 12 13 14 16 16 15 13 13 12 12 13 14
2 1 0 0 0 0 0 0 0 1 2 3 2 4 8 9 9 11 14 15 16 17 17 16 16 15 13 12 11 12 13 13 12 11 11 14 15 16 17 17 16 15 16 18
1 0 0 0 0 0 0 0 0 1 2 3 2 4 8 9 10 12 15 16 18 19 19 19 21 21 20 19 17 15 14 13 11 10 10 12 14 16 18 19 18 17 19 21
2 1 0 0 0 0 0 0 0 1 1 2 2 3 5 9 12 14 15 16 16 17 19 22 24 24 24 25 23 19 15 13 12 12 11 13 16 17 18 21 22 22 22 22
2 1 0 0 0 0 0 0 0 1 1 2 3 3 4 8 13 16 16 14 14 16 20 23 24 24 26 27 25 22 20 17 16 17 17 19 21 22 22 25 27 27 25 24
2 1 1 0 0 0 0 0 1 2 3 4 4 3 4 8 14 18 18 15 14 16 19 22 24 24 25 26 25 25 23 21 20 21 23 25 26 27 27 26 26 27 27 25
3 3 2 1 1 1 1 2 2 4 5 6 6 5 5 9 15 19 21 19 17 16 16 19 23 23 23 25 25 26 24 21 20 21 22 23 25 27 26 24 22 25 25 24
3 3 3 2 1 1 2 2 2 3 5 6 6 5 6 11 17 22 24 23 21 19 17 18 20 21 21 22 24 25 24 20 19 21 21 21 22 22 22 22 22 23 23 22
1 2 3 3 2 2 2 1 2 3 4 4 4 7 10 13 18 24 25 23 23 24 21 20 21 22 23 24 24 24 24 23 23 23 21 19 18 17 18 21 22 22 20 18
1 2 3 2 2 3 2 2 4 6 6 3 4 9 14 18 21 25 25 23 23 25 24 24 27 29 29 28 26 24 24 25 25 24 22 18 14 13 15 19 22 21 18 16
5 4 4 4 4 4 4 4 6 9 8 7 9 14 19 23 25 26 25 24 24 24 25 29 32 34 34 31 27 24 22 23 24 24 22 19 15 12 14 18 21 22 19 17
7 7 7 6 5 4 3 4 6 8 10 12 17 20 23 25 26 26 26 25 24 23 25 29 32 32 33 31 27 24 22 22 23 24 24 23 19 16 15 16 20 21 21 19
7 7 7 7 5 3 2 2 3 6 9 14 18 21 23 24 23 23 24 23 22 21 22 25 27 27 27 25 23 22 23 24 23 24 25 25 22 19 15 14 16 18 18 17
6 6 6 7 6 4 3 2 2 5 9 13 16 19 21 21 20 20 20 20 19 18 19 20 21 20 20 20 17 17 20 21 21 21 23 23 21 17 14 12 12 11 10 10
4 5 6 7 7 6 4 3 3 6 9 12 16 19 20 19 18 18 18 18 18 17 17 16 15 15 16 17 15 13 15 17 19 19 19 20 18 16 13 11 8 5 3 3
Wind_Speed
7 9 8 6 6 5 5 4 4 2 1 4 4 3 4 5 6 7 8 8 8 8 8 8 9 9 8 8 8 8 8 8 6 4 4 3 3 2 2 2 2 2 1 1
8 10 6 5 6 7 8 7 5 2 0 4 4 4 4 6 7 6 7 9 9 8 8 8 9 9 9 9 8 8 8 8 7 5 3 2 2 2 2 1 2 2 2 1
11 3 4 6 7 9 9 8 6 4 3 5 6 5 5 7 7 7 7 7 8 9 9 9 9 9 9 9 9 8 8 8 7 6 5 4 3 3 3 3 2 2 2 2
8 5 6 8 8 9 7 5 5 6 7 3 5 4 4 6 8 8 8 8 9 9 9 9 9 10 10 10 9 9 9 8 8 7 6 6 4 3 3 2 2 2 2 2
7 7 8 9 7 7 4 2 5 7 8 7 6 7 3 6 7 8 8 8 9 9 9 9 10 9 9 9 9 9 9 8 8 7 7 6 5 3 3 2 2 2 2 2
7 5 6 6 4 5 4 5 6 8 9 8 5 7 3 3 4 5 7 8 8 9 9 9 9 9 9 9 9 9 9 8 8 8 8 7 6 4 3 2 2 2 2 2
10 9 6 6 7 8 9 9 6 7 7 5 2 7 3 1 1 3 5 7 7 8 9 9 10 10 9 10 10 9 9 8 8 8 8 7 6 5 5 4 3 3 2 2
11 10 9 7 8 6 9 10 7 6 5 3 5 6 1 2 1 2 4 6 7 8 9 9 9 10 10 10 9 9 9 8 8 7 7 6 6 5 4 4 3 3 2 1
8 7 7 7 7 8 8 9 8 9 7 7 4 3 3 4 4 4 5 6 7 7 8 8 9 9 9 9 10 9 9 8 8 7 7 6 6 4 4 4 4 3 3 2
6 7 7 7 8 7 8 6 6 8 7 8 5 6 2 3 3 4 4 6 6 6 7 8 8 9 9 8 9 9 9 8 7 7 7 6 6 5 5 4 4 3 3 3
8 8 7 9 10 9 9 9 8 8 8 8 6 2 3 0 1 2 3 4 5 5 5 7 7 7 8 9 9 9 8 8 7 7 6 5 5 6 6 5 5 4 4 4
9 8 8 9 6 5 9 10 10 9 8 8 9 2 5 1 1 1 2 3 3 3 4 5 7 8 8 9 9 9 8 8 8 7 6 6 5 5 6 5 4 4 4 4
8 9 9 9 10 9 9 10 11 11 9 8 10 3 6 2 1 1 2 3 3 4 4 5 7 7 8 8 8 8 8 8 7 7 7 6 6 6 5 4 4 4 4 4
7 10 11 10 5 7 9 10 10 12 10 9 9 7 2 1 1 1 2 3 4 4 5 5 6 6 6 6 6 6 6 7 7 7 7 6 5 5 4 4 4 4 4 4
8 11 10 10 6 7 9 10 11 13 12 10 7 7 4 2 2 1 2 3 4 4 6 6 6 6 6 6 6 6 6 6 6 7 7 6 5 5 4 4 4 4 4 5
8 9 9 11 9 9 10 10 11 12 11 11 9 7 3 1 1 2 3 4 4 4 5 6 7 7 7 7 6 6 6 6 6 6 6 5 5 5 5 4 4 4 4 4
7 8 9 10 8 10 12 10 11 10 9 10 9 6 2 2 2 2 3 4 4 4 4 5 6 6 6 6 6 6 5 5 6 6 5 5 5 5 4 4 4 3 4 4
8 8 8 8 8 13 3 2 6 8 7 6 6 4 4 3 2 2 2 3 4 4 4 4 5 6 6 6 6 6 6 6 6 5 5 4 4 4 4 4 4 4 3 3
8 8 8 8 11 9 5 4 5 7 6 3 5 5 4 2 3 3 1 2 3 3 4 4 5 5 5 6 6 6 6 6 5 5 4 4 4 4 4 5 4 3 3 3
7 8 10 9 11 10 3 4 2 6 6 1 3 3 2 4 5 1 2 1 2 2 3 4 5 5 6 6 6 6 6 6 5 4 4 4 4 4 4 4 4 3 3 3
9 9 11 11 11 5 2 3 5 8 1 1 1 2 2 2 4 3 1 1 2 2 3 3 4 4 5 5 5 5 5 5 4 3 3 4 4 4 4 3 3 3 3 3
8 8 8 9 11 5 3 4 3 2 3 1 1 1 2 2 1 1 1 2 3 3 4 4 4 4 4 4 5 4 4 3 3 3 3 4 4 4 3 3 3 3 3 4
6 5 4 4 1 4 2 1 2 2 1 2 3 2 2 2 1 1 2 2 3 3 4 4 4 5 4 3 4 4 3 3 3 3 3 3 3 3 3 3 4 4 4 4
3 2 3 3 3 1 1 1 1 1 2 2 3 2 1 1 1 1 2 2 3 3 3 3 4 4 3 3 2 2 3 3 3 3 3 3 3 3 3 2 3 3 3 3
2 3 4 4 3 2 2 1 1 2 1 2 2 2 1 1 1 2 2 3 2 2 2 2 2 3 3 2 2 2 2 3 3 3 3 4 4 3 2 2 1 2 1 1
4 4 6 4 2 3 1 0 1 2 2 2 2 2 2 1 1 2 3 2 2 2 2 1 2 2 2 2 2 2 2 3 4 3 4 3 3 3 3 2 2 2 0 1
Wind_Direction
201 223 220 221 239 267 274 270 272 279 275 268 258 244 209 189 199 193 190 186 185 183 174 174 179 176 171 168 169 176 177 167 172 171 177 169 165 170 163 162 144 163 173 172
211 225 231 239 237 236 244 252 252 240 221 274 272 260 219 201 204 199 194 191 189 185 175 174 180 178 177 172 172 175 177 172 178 171 175 173 156 175 166 162 150 175 177 203
229 221 207 226 224 228 235 249 260 277 272 235 257 227 197 189 197 196 201 197 192 189 183 177 180 183 181 178 180 179 177 175 179 172 172 164 163 185 175 179 174 181 187 201
234 218 220 226 227 238 234 238 255 256 259 247 262 270 191 190 194 200 200 196 193 191 188 182 181 184 186 184 183 182 179 177 177 175 180 182 183 189 177 185 155 176 190 205
211 211 222 230 232 240 254 237 246 253 259 260 241 270 193 185 202 200 199 197 195 190 187 184 184 184 184 182 182 177 176 178 176 177 178 190 194 191 175 174 157 197 187 197
228 218 238 242 230 225 201 211 222 237 248 250 248 266 258 179 211 197 188 191 193 188 185 184 182 179 182 178 178 173 172 178 179 181 183 193 193 189 176 190 179 198 189 187
205 206 204 215 210 192 212 229 228 226 227 241 200 254 277 90 224 227 197 185 186 184 182 181 180 179 180 179 178 172 171 177 181 185 189 193 193 190 189 199 198 218 208 190
207 200 193 204 225 215 217 238 253 264 261 239 191 250 258 113 167 196 195 180 178 182 182 182 181 179 178 177 175 174 173 176 180 182 186 190 193 197 192 202 218 217 231 222
218 203 173 198 219 233 214 232 265 276 268 266 241 241 208 172 197 190 183 172 171 177 180 182 179 180 176 175 174 174 172 177 181 178 178 184 193 200 194 194 212 216 221 213
233 222 188 183 202 218 253 240 235 252 264 265 254 245 245 175 198 183 181 171 163 171 179 181 180 178 176 174 169 170 172 177 182 182 186 179 186 191 198 209 206 217 215 212
234 228 192 192 214 209 203 217 235 250 265 274 273 281 60 87 229 202 182 164 163 171 178 178 174 173 172 168 169 171 171 176 182 186 188 184 186 188 191 195 198 201 206 202
220 240 223 213 203 242 227 229 227 240 246 260 277 288 94 76 43 163 156 143 144 157 166 166 162 164 168 168 169 170 173 177 178 177 181 184 186 189 192 188 191 192 196 201
201 231 224 211 196 202 225 231 237 250 252 251 258 246 114 112 98 124 147 140 144 152 158 160 159 161 165 168 170 171 176 178 175 173 177 179 184 186 190 187 187 191 194 200
224 234 239 242 233 207 218 223 230 243 250 252 254 271 232 228 215 162 166 158 152 160 168 166 158 161 162 166 167 172 181 177 176 176 176 180 187 186 185 186 187 192 194 196
229 237 237 252 252 238 233 229 225 237 253 265 266 267 285 309 293 246 199 179 168 167 167 164 163 162 166 167 169 173 177 176 178 180 182 181 182 180 179 185 191 201 208 205
228 242 234 237 236 236 241 236 231 235 246 252 261 268 298 336 247 217 201 198 193 185 174 169 166 166 171 174 175 172 177 177 179 185 187 180 181 180 182 188 195 202 210 216
218 229 235 233 225 237 236 232 231 230 239 250 254 263 275 263 248 236 216 210 196 185 180 176 173 174 176 174 171 172 171 170 173 182 183 181 184 187 192 197 196 209 220 220
226 232 237 235 221 237 226 194 229 234 241 253 264 288 289 280 255 247 236 215 196 178 173 176 174 175 176 172 169 171 167 173 177 181 182 184 186 192 191 195 203 214 222 224
232 226 238 236 233 232 193 182 214 230 234 258 267 275 280 250 221 205 191 211 201 179 177 178 176 171 164 162 161 166 169 172 178 179 183 186 193 198 200 201 206 212 219 220
208 222 238 235 244 240 204 138 197 232 221 210 273 279 268 229 242 125 86 191 186 159 157 162 164 158 155 155 160 168 172 172 179 182 185 193 201 206 205 203 207 207 213 216
196 210 231 239 242 241 77 132 190 230 226 66 264 277 271 267 321 23 55 143 148 135 135 144 148 147 148 153 159 168 172 177 175 175 183 193 202 206 206 207 209 209 210 213
224 221 221 236 239 225 90 168 221 4 35 18 322 306 296 303 349 66 93 124 133 133 130 132 132 131 138 149 158 167 170 171 171 176 192 202 208 220 200 201 206 205 209 208
243 273 254 255 269 59 96 100 62 25 6 341 316 312 287 268 208 136 129 128 135 140 136 138 137 130 132 144 162 172 163 166 170 178 192 203 207 215 213 215 213 210 212 230
184 304 256 226 189 147 135 84 62 16 349 331 327 323 310 284 219 179 154 146 149 137 135 137 136 131 134 149 168 175 164 167 175 184 188 194 198 203 197 231 234 236 235 238
277 223 231 223 209 191 183 191 354 4 353 345 338 339 341 281 233 196 176 169 166 152 145 145 152 150 151 161 176 189 175 179 189 191 195 201 198 187 193 208 269 262 298 314
242 248 251 253 252 263 244 317 312 322 329 325 318 318 318 269 227 215 195 185 173 166 157 169 181 173 168 169 183 189 192 194 204 208 211 209 198 186 199 192 180 92 123 120